Year,Month,Day,Hour,Minute,Value (Times are PST for insolation in W/m^2)
2019,08,30,00,00,0.00
2019,08,30,00,01,0.00
2019,08,30,00,02,0.00
2019,08,30,00,03,0.00
2019,08,30,00,04,0.00
2019,08,30,00,05,0.00
2019,08,30,00,06,0.00
2019,08,30,00,07,0.00
2019,08,30,00,08,0.00
2019,08,30,00,09,0.00
2019,08,30,00,10,0.00
2019,08,30,00,11,0.00
2019,08,30,00,12,0.00
2019,08,30,00,13,0.00
2019,08,30,00,14,0.00
2019,08,30,00,15,0.00
2019,08,30,00,16,0.00
2019,08,30,00,17,0.00
2019,08,30,00,18,0.00
2019,08,30,00,19,0.00
2019,08,30,00,20,0.00
2019,08,30,00,21,0.00
2019,08,30,00,22,0.00
2019,08,30,00,23,0.00
2019,08,30,00,24,0.00
2019,08,30,00,25,0.00
2019,08,30,00,26,0.00
2019,08,30,00,27,0.00
2019,08,30,00,28,0.00
2019,08,30,00,29,0.00
2019,08,30,00,30,0.00
2019,08,30,00,31,0.00
2019,08,30,00,32,0.00
2019,08,30,00,33,0.00
2019,08,30,00,34,0.00
2019,08,30,00,35,0.00
2019,08,30,00,36,0.00
2019,08,30,00,37,0.00
2019,08,30,00,38,0.00
2019,08,30,00,39,0.00
2019,08,30,00,40,0.00
2019,08,30,00,41,0.00
2019,08,30,00,42,0.00
2019,08,30,00,43,0.00
2019,08,30,00,44,0.00
2019,08,30,00,45,0.00
2019,08,30,00,46,0.00
2019,08,30,00,47,0.00
2019,08,30,00,48,0.00
2019,08,30,00,49,0.00
2019,08,30,00,50,0.00
2019,08,30,00,51,0.00
2019,08,30,00,52,0.00
2019,08,30,00,53,0.00
2019,08,30,00,54,0.00
2019,08,30,00,55,0.00
2019,08,30,00,56,0.00
2019,08,30,00,57,0.00
2019,08,30,00,58,0.00
2019,08,30,00,59,0.00
2019,08,30,01,00,0.00
2019,08,30,01,01,0.00
2019,08,30,01,02,0.00
2019,08,30,01,03,0.00
2019,08,30,01,04,0.00
2019,08,30,01,05,0.00
2019,08,30,01,06,0.00
2019,08,30,01,07,0.00
2019,08,30,01,08,0.00
2019,08,30,01,09,0.00
2019,08,30,01,10,0.00
2019,08,30,01,11,0.00
2019,08,30,01,12,0.00
2019,08,30,01,13,0.00
2019,08,30,01,14,0.00
2019,08,30,01,15,0.00
2019,08,30,01,16,0.00
2019,08,30,01,17,0.00
2019,08,30,01,18,0.00
2019,08,30,01,19,0.00
2019,08,30,01,20,0.00
2019,08,30,01,21,0.00
2019,08,30,01,22,0.00
2019,08,30,01,23,0.00
2019,08,30,01,24,0.00
2019,08,30,01,25,0.00
2019,08,30,01,26,0.00
2019,08,30,01,27,0.00
2019,08,30,01,28,0.00
2019,08,30,01,29,0.00
2019,08,30,01,30,0.00
2019,08,30,01,31,0.00
2019,08,30,01,32,0.00
2019,08,30,01,33,0.00
2019,08,30,01,34,0.00
2019,08,30,01,35,0.00
2019,08,30,01,36,0.00
2019,08,30,01,37,0.00
2019,08,30,01,38,0.00
2019,08,30,01,39,0.00
2019,08,30,01,40,0.00
2019,08,30,01,41,0.00
2019,08,30,01,42,0.00
2019,08,30,01,43,0.00
2019,08,30,01,44,0.00
2019,08,30,01,45,0.00
2019,08,30,01,46,0.00
2019,08,30,01,47,0.00
2019,08,30,01,48,0.00
2019,08,30,01,49,0.00
2019,08,30,01,50,0.00
2019,08,30,01,51,0.00
2019,08,30,01,52,0.00
2019,08,30,01,53,0.00
2019,08,30,01,54,0.00
2019,08,30,01,55,0.00
2019,08,30,01,56,0.00
2019,08,30,01,57,0.00
2019,08,30,01,58,0.00
2019,08,30,01,59,0.00
2019,08,30,02,00,0.00
2019,08,30,02,01,0.00
2019,08,30,02,02,0.00
2019,08,30,02,03,0.00
2019,08,30,02,04,0.00
2019,08,30,02,05,0.00
2019,08,30,02,06,0.00
2019,08,30,02,07,0.00
2019,08,30,02,08,0.00
2019,08,30,02,09,0.00
2019,08,30,02,10,0.00
2019,08,30,02,11,0.00
2019,08,30,02,12,0.00
2019,08,30,02,13,0.00
2019,08,30,02,14,0.00
2019,08,30,02,15,0.00
2019,08,30,02,16,0.00
2019,08,30,02,17,0.00
2019,08,30,02,18,0.00
2019,08,30,02,19,0.00
2019,08,30,02,20,0.00
2019,08,30,02,21,0.00
2019,08,30,02,22,0.00
2019,08,30,02,23,0.00
2019,08,30,02,24,0.00
2019,08,30,02,25,0.00
2019,08,30,02,26,0.00
2019,08,30,02,27,0.00
2019,08,30,02,28,0.00
2019,08,30,02,29,0.00
2019,08,30,02,30,0.00
2019,08,30,02,31,0.00
2019,08,30,02,32,0.00
2019,08,30,02,33,0.00
2019,08,30,02,34,0.00
2019,08,30,02,35,0.00
2019,08,30,02,36,0.00
2019,08,30,02,37,0.00
2019,08,30,02,38,0.00
2019,08,30,02,39,0.00
2019,08,30,02,40,0.00
2019,08,30,02,41,0.00
2019,08,30,02,42,0.00
2019,08,30,02,43,0.00
2019,08,30,02,44,0.00
2019,08,30,02,45,0.00
2019,08,30,02,46,0.00
2019,08,30,02,47,0.00
2019,08,30,02,48,0.00
2019,08,30,02,49,0.00
2019,08,30,02,50,0.00
2019,08,30,02,51,0.00
2019,08,30,02,52,0.00
2019,08,30,02,53,0.00
2019,08,30,02,54,0.00
2019,08,30,02,55,0.00
2019,08,30,02,56,0.00
2019,08,30,02,57,0.00
2019,08,30,02,58,0.00
2019,08,30,02,59,0.00
2019,08,30,03,00,0.00
2019,08,30,03,01,0.00
2019,08,30,03,02,0.00
2019,08,30,03,03,0.00
2019,08,30,03,04,0.00
2019,08,30,03,05,0.00
2019,08,30,03,06,0.00
2019,08,30,03,07,0.00
2019,08,30,03,08,0.00
2019,08,30,03,09,0.00
2019,08,30,03,10,0.00
2019,08,30,03,11,0.00
2019,08,30,03,12,0.00
2019,08,30,03,13,0.00
2019,08,30,03,14,0.00
2019,08,30,03,15,0.00
2019,08,30,03,16,0.00
2019,08,30,03,17,0.00
2019,08,30,03,18,0.00
2019,08,30,03,19,0.00
2019,08,30,03,20,0.00
2019,08,30,03,21,0.00
2019,08,30,03,22,0.00
2019,08,30,03,23,0.00
2019,08,30,03,24,0.00
2019,08,30,03,25,0.00
2019,08,30,03,26,0.00
2019,08,30,03,27,0.00
2019,08,30,03,28,0.00
2019,08,30,03,29,0.00
2019,08,30,03,30,0.00
2019,08,30,03,31,0.00
2019,08,30,03,32,0.00
2019,08,30,03,33,0.00
2019,08,30,03,34,0.00
2019,08,30,03,35,0.00
2019,08,30,03,36,0.00
2019,08,30,03,37,0.00
2019,08,30,03,38,0.00
2019,08,30,03,39,0.00
2019,08,30,03,40,0.00
2019,08,30,03,41,0.00
2019,08,30,03,42,0.00
2019,08,30,03,43,0.00
2019,08,30,03,44,0.00
2019,08,30,03,45,0.00
2019,08,30,03,46,0.00
2019,08,30,03,47,0.00
2019,08,30,03,48,0.00
2019,08,30,03,49,0.00
2019,08,30,03,50,0.00
2019,08,30,03,51,0.00
2019,08,30,03,52,0.00
2019,08,30,03,53,0.00
2019,08,30,03,54,0.00
2019,08,30,03,55,0.00
2019,08,30,03,56,0.00
2019,08,30,03,57,0.00
2019,08,30,03,58,0.00
2019,08,30,03,59,0.00
2019,08,30,04,00,0.00
2019,08,30,04,01,0.00
2019,08,30,04,02,0.00
2019,08,30,04,03,0.00
2019,08,30,04,04,0.00
2019,08,30,04,05,0.00
2019,08,30,04,06,0.00
2019,08,30,04,07,0.00
2019,08,30,04,08,0.00
2019,08,30,04,09,0.00
2019,08,30,04,10,0.00
2019,08,30,04,11,0.00
2019,08,30,04,12,0.00
2019,08,30,04,13,0.00
2019,08,30,04,14,0.00
2019,08,30,04,15,0.00
2019,08,30,04,16,0.00
2019,08,30,04,17,0.00
2019,08,30,04,18,0.00
2019,08,30,04,19,0.00
2019,08,30,04,20,0.00
2019,08,30,04,21,0.00
2019,08,30,04,22,0.00
2019,08,30,04,23,0.00
2019,08,30,04,24,0.00
2019,08,30,04,25,0.00
2019,08,30,04,26,0.00
2019,08,30,04,27,0.00
2019,08,30,04,28,0.00
2019,08,30,04,29,0.00
2019,08,30,04,30,0.00
2019,08,30,04,31,0.00
2019,08,30,04,32,0.00
2019,08,30,04,33,0.00
2019,08,30,04,34,0.00
2019,08,30,04,35,0.00
2019,08,30,04,36,0.00
2019,08,30,04,37,0.00
2019,08,30,04,38,0.00
2019,08,30,04,39,0.00
2019,08,30,04,40,0.00
2019,08,30,04,41,0.00
2019,08,30,04,42,0.00
2019,08,30,04,43,0.00
2019,08,30,04,44,0.00
2019,08,30,04,45,0.00
2019,08,30,04,46,0.00
2019,08,30,04,47,0.00
2019,08,30,04,48,0.00
2019,08,30,04,49,0.00
2019,08,30,04,50,0.00
2019,08,30,04,51,0.00
2019,08,30,04,52,0.00
2019,08,30,04,53,0.00
2019,08,30,04,54,0.00
2019,08,30,04,55,0.00
2019,08,30,04,56,0.00
2019,08,30,04,57,0.00
2019,08,30,04,58,0.00
2019,08,30,04,59,0.00
2019,08,30,05,00,0.00
2019,08,30,05,01,0.00
2019,08,30,05,02,0.00
2019,08,30,05,03,0.00
2019,08,30,05,04,0.00
2019,08,30,05,05,0.00
2019,08,30,05,06,0.00
2019,08,30,05,07,0.00
2019,08,30,05,08,0.00
2019,08,30,05,09,0.00
2019,08,30,05,10,0.00
2019,08,30,05,11,0.00
2019,08,30,05,12,0.00
2019,08,30,05,13,0.00
2019,08,30,05,14,0.00
2019,08,30,05,15,0.00
2019,08,30,05,16,0.00
2019,08,30,05,17,0.00
2019,08,30,05,18,0.00
2019,08,30,05,19,0.00
2019,08,30,05,20,0.00
2019,08,30,05,21,0.00
2019,08,30,05,22,0.00
2019,08,30,05,23,0.00
2019,08,30,05,24,0.00
2019,08,30,05,25,0.00
2019,08,30,05,26,0.00
2019,08,30,05,27,0.00
2019,08,30,05,28,0.00
2019,08,30,05,29,0.00
2019,08,30,05,30,0.00
2019,08,30,05,31,0.00
2019,08,30,05,32,0.00
2019,08,30,05,33,0.00
2019,08,30,05,34,0.00
2019,08,30,05,35,0.00
2019,08,30,05,36,0.00
2019,08,30,05,37,0.00
2019,08,30,05,38,0.00
2019,08,30,05,39,0.00
2019,08,30,05,40,0.00
2019,08,30,05,41,0.00
2019,08,30,05,42,0.00
2019,08,30,05,43,0.00
2019,08,30,05,44,0.00
2019,08,30,05,45,0.00
2019,08,30,05,46,0.00
2019,08,30,05,47,0.00
2019,08,30,05,48,0.00
2019,08,30,05,49,0.00
2019,08,30,05,50,0.00
2019,08,30,05,51,0.00
2019,08,30,05,52,0.00
2019,08,30,05,53,0.00
2019,08,30,05,54,0.00
2019,08,30,05,55,0.00
2019,08,30,05,56,0.00
2019,08,30,05,57,0.00
2019,08,30,05,58,0.00
2019,08,30,05,59,0.00
2019,08,30,06,00,0.00
2019,08,30,06,01,0.00
2019,08,30,06,02,0.00
2019,08,30,06,03,0.00
2019,08,30,06,04,0.00
2019,08,30,06,05,0.00
2019,08,30,06,06,0.00
2019,08,30,06,07,0.00
2019,08,30,06,08,0.00
2019,08,30,06,09,0.00
2019,08,30,06,10,0.00
2019,08,30,06,11,0.00
2019,08,30,06,12,0.00
2019,08,30,06,13,0.00
2019,08,30,06,14,0.00
2019,08,30,06,15,0.00
2019,08,30,06,16,0.00
2019,08,30,06,17,0.00
2019,08,30,06,18,0.00
2019,08,30,06,19,0.00
2019,08,30,06,20,0.00
2019,08,30,06,21,0.00
2019,08,30,06,22,0.00
2019,08,30,06,23,0.00
2019,08,30,06,24,0.00
2019,08,30,06,25,0.00
2019,08,30,06,26,0.00
2019,08,30,06,27,0.00
2019,08,30,06,28,0.00
2019,08,30,06,29,0.00
2019,08,30,06,30,0.00
2019,08,30,06,31,0.00
2019,08,30,06,32,0.00
2019,08,30,06,33,0.00
2019,08,30,06,34,0.00
2019,08,30,06,35,0.00
2019,08,30,06,36,0.00
2019,08,30,06,37,0.00
2019,08,30,06,38,0.00
2019,08,30,06,39,0.00
2019,08,30,06,40,0.00
2019,08,30,06,41,0.00
2019,08,30,06,42,0.00
2019,08,30,06,43,0.00
2019,08,30,06,44,0.00
2019,08,30,06,45,0.80
2019,08,30,06,46,5.00
2019,08,30,06,47,5.00
2019,08,30,06,48,5.00
2019,08,30,06,49,5.60
2019,08,30,06,50,7.00
2019,08,30,06,51,7.00
2019,08,30,06,52,7.00
2019,08,30,06,53,7.00
2019,08,30,06,54,7.70
2019,08,30,06,55,9.00
2019,08,30,06,56,9.00
2019,08,30,06,57,9.00
2019,08,30,06,58,9.90
2019,08,30,06,59,11.00
2019,08,30,07,00,11.00
2019,08,30,07,01,11.00
2019,08,30,07,02,11.00
2019,08,30,07,03,11.00
2019,08,30,07,04,11.60
2019,08,30,07,05,12.00
2019,08,30,07,06,12.00
2019,08,30,07,07,13.30
2019,08,30,07,08,14.00
2019,08,30,07,09,14.00
2019,08,30,07,10,15.40
2019,08,30,07,11,16.00
2019,08,30,07,12,16.00
2019,08,30,07,13,16.00
2019,08,30,07,14,17.60
2019,08,30,07,15,18.00
2019,08,30,07,16,18.00
2019,08,30,07,17,18.90
2019,08,30,07,18,19.00
2019,08,30,07,19,19.00
2019,08,30,07,20,20.80
2019,08,30,07,21,21.00
2019,08,30,07,22,21.00
2019,08,30,07,23,21.00
2019,08,30,07,24,21.00
2019,08,30,07,25,23.00
2019,08,30,07,26,23.00
2019,08,30,07,27,23.20
2019,08,30,07,28,25.00
2019,08,30,07,29,25.00
2019,08,30,07,30,25.00
2019,08,30,07,31,25.00
2019,08,30,07,32,25.00
2019,08,30,07,33,24.20
2019,08,30,07,34,21.50
2019,08,30,07,35,23.50
2019,08,30,07,36,25.00
2019,08,30,07,37,25.30
2019,08,30,07,38,26.00
2019,08,30,07,39,26.00
2019,08,30,07,40,26.70
2019,08,30,07,41,28.00
2019,08,30,07,42,28.00
2019,08,30,07,43,28.80
2019,08,30,07,44,30.00
2019,08,30,07,45,29.10
2019,08,30,07,46,28.00
2019,08,30,07,47,28.00
2019,08,30,07,48,28.00
2019,08,30,07,49,29.10
2019,08,30,07,50,30.00
2019,08,30,07,51,30.00
2019,08,30,07,52,31.20
2019,08,30,07,53,32.00
2019,08,30,07,54,32.60
2019,08,30,07,55,33.00
2019,08,30,07,56,33.00
2019,08,30,07,57,34.40
2019,08,30,07,58,36.50
2019,08,30,07,59,38.50
2019,08,30,08,00,39.00
2019,08,30,08,01,39.80
2019,08,30,08,02,40.00
2019,08,30,08,03,40.00
2019,08,30,08,04,40.00
2019,08,30,08,05,41.80
2019,08,30,08,06,43.80
2019,08,30,08,07,44.00
2019,08,30,08,08,48.80
2019,08,30,08,09,52.80
2019,08,30,08,10,56.00
2019,08,30,08,11,59.80
2019,08,30,08,12,63.20
2019,08,30,08,13,67.30
2019,08,30,08,14,70.60
2019,08,30,08,15,76.00
2019,08,30,08,16,76.00
2019,08,30,08,17,76.80
2019,08,30,08,18,81.00
2019,08,30,08,19,81.60
2019,08,30,08,20,84.50
2019,08,30,08,21,87.00
2019,08,30,08,22,90.80
2019,08,30,08,23,94.20
2019,08,30,08,24,97.30
2019,08,30,08,25,98.00
2019,08,30,08,26,97.70
2019,08,30,08,27,96.30
2019,08,30,08,28,93.60
2019,08,30,08,29,90.60
2019,08,30,08,30,90.00
2019,08,30,08,31,89.10
2019,08,30,08,32,86.10
2019,08,30,08,33,82.70
2019,08,30,08,34,78.50
2019,08,30,08,35,73.80
2019,08,30,08,36,70.90
2019,08,30,08,37,67.20
2019,08,30,08,38,63.20
2019,08,30,08,39,62.00
2019,08,30,08,40,62.70
2019,08,30,08,41,66.90
2019,08,30,08,42,71.10
2019,08,30,08,43,74.70
2019,08,30,08,44,79.50
2019,08,30,08,45,82.50
2019,08,30,08,46,83.80
2019,08,30,08,47,84.00
2019,08,30,08,48,85.60
2019,08,30,08,49,86.00
2019,08,30,08,50,87.70
2019,08,30,08,51,89.70
2019,08,30,08,52,90.90
2019,08,30,08,53,92.80
2019,08,30,08,54,94.90
2019,08,30,08,55,96.90
2019,08,30,08,56,97.00
2019,08,30,08,57,97.00
2019,08,30,08,58,97.00
2019,08,30,08,59,97.00
2019,08,30,09,00,97.50
2019,08,30,09,01,109.00
2019,08,30,09,02,108.80
2019,08,30,09,03,106.80
2019,08,30,09,04,104.60
2019,08,30,09,05,101.70
2019,08,30,09,06,100.00
2019,08,30,09,07,100.00
2019,08,30,09,08,101.00
2019,08,30,09,09,104.80
2019,08,30,09,10,109.00
2019,08,30,09,11,116.80
2019,08,30,09,12,126.30
2019,08,30,09,13,136.40
2019,08,30,09,14,143.90
2019,08,30,09,15,151.40
2019,08,30,09,16,157.60
2019,08,30,09,17,162.80
2019,08,30,09,18,170.60
2019,08,30,09,19,177.40
2019,08,30,09,20,178.50
2019,08,30,09,21,176.00
2019,08,30,09,22,171.40
2019,08,30,09,23,165.50
2019,08,30,09,24,160.20
2019,08,30,09,25,152.90
2019,08,30,09,26,143.90
2019,08,30,09,27,137.40
2019,08,30,09,28,133.10
2019,08,30,09,29,132.00
2019,08,30,09,30,133.90
2019,08,30,09,31,135.00
2019,08,30,09,32,134.30
2019,08,30,09,33,128.80
2019,08,30,09,34,121.70
2019,08,30,09,35,114.40
2019,08,30,09,36,108.10
2019,08,30,09,37,102.80
2019,08,30,09,38,100.30
2019,08,30,09,39,100.00
2019,08,30,09,40,103.40
2019,08,30,09,41,104.90
2019,08,30,09,42,105.00
2019,08,30,09,43,105.00
2019,08,30,09,44,105.00
2019,08,30,09,45,105.00
2019,08,30,09,46,109.20
2019,08,30,09,47,113.20
2019,08,30,09,48,116.50
2019,08,30,09,49,121.60
2019,08,30,09,50,127.70
2019,08,30,09,51,132.40
2019,08,30,09,52,135.90
2019,08,30,09,53,142.40
2019,08,30,09,54,148.00
2019,08,30,09,55,150.90
2019,08,30,09,56,161.80
2019,08,30,09,57,168.80
2019,08,30,09,58,177.10
2019,08,30,09,59,188.50
2019,08,30,10,00,198.50
2019,08,30,10,01,209.50
2019,08,30,10,02,218.80
2019,08,30,10,03,223.80
2019,08,30,10,04,224.20
2019,08,30,10,05,218.90
2019,08,30,10,06,208.60
2019,08,30,10,07,193.50
2019,08,30,10,08,176.60
2019,08,30,10,09,169.00
2019,08,30,10,10,169.00
2019,08,30,10,11,161.30
2019,08,30,10,12,156.70
2019,08,30,10,13,161.00
2019,08,30,10,14,164.30
2019,08,30,10,15,165.00
2019,08,30,10,16,166.40
2019,08,30,10,17,168.40
2019,08,30,10,18,171.20
2019,08,30,10,19,176.20
2019,08,30,10,20,180.20
2019,08,30,10,21,182.50
2019,08,30,10,22,183.00
2019,08,30,10,23,181.40
2019,08,30,10,24,179.40
2019,08,30,10,25,176.40
2019,08,30,10,26,176.00
2019,08,30,10,27,163.50
2019,08,30,10,28,155.70
2019,08,30,10,29,148.40
2019,08,30,10,30,142.30
2019,08,30,10,31,139.00
2019,08,30,10,32,135.00
2019,08,30,10,33,133.90
2019,08,30,10,34,131.90
2019,08,30,10,35,130.00
2019,08,30,10,36,130.00
2019,08,30,10,37,129.70
2019,08,30,10,38,128.00
2019,08,30,10,39,128.00
2019,08,30,10,40,128.00
2019,08,30,10,41,128.00
2019,08,30,10,42,129.00
2019,08,30,10,43,132.80
2019,08,30,10,44,135.00
2019,08,30,10,45,137.80
2019,08,30,10,46,145.50
2019,08,30,10,47,150.20
2019,08,30,10,48,154.10
2019,08,30,10,49,156.80
2019,08,30,10,50,158.80
2019,08,30,10,51,160.80
2019,08,30,10,52,164.00
2019,08,30,10,53,170.10
2019,08,30,10,54,176.20
2019,08,30,10,55,181.00
2019,08,30,10,56,184.00
2019,08,30,10,57,183.80
2019,08,30,10,58,181.90
2019,08,30,10,59,179.80
2019,08,30,11,00,179.00
2019,08,30,11,01,179.00
2019,08,30,11,02,179.00
2019,08,30,11,03,180.30
2019,08,30,11,04,181.00
2019,08,30,11,05,181.00
2019,08,30,11,06,182.50
2019,08,30,11,07,185.20
2019,08,30,11,08,190.80
2019,08,30,11,09,195.90
2019,08,30,11,10,201.00
2019,08,30,11,11,203.60
2019,08,30,11,12,204.00
2019,08,30,11,13,202.30
2019,08,30,11,14,202.00
2019,08,30,11,15,203.80
2019,08,30,11,16,210.60
2019,08,30,11,17,217.70
2019,08,30,11,18,225.00
2019,08,30,11,19,232.00
2019,08,30,11,20,239.30
2019,08,30,11,21,246.40
2019,08,30,11,22,253.70
2019,08,30,11,23,260.50
2019,08,30,11,24,265.00
2019,08,30,11,25,265.30
2019,08,30,11,26,267.30
2019,08,30,11,27,270.00
2019,08,30,11,28,275.00
2019,08,30,11,29,280.00
2019,08,30,11,30,282.50
2019,08,30,11,31,279.60
2019,08,30,11,32,273.20
2019,08,30,11,33,267.00
2019,08,30,11,34,267.00
2019,08,30,11,35,264.40
2019,08,30,11,36,260.80
2019,08,30,11,37,263.30
2019,08,30,11,38,265.80
2019,08,30,11,39,267.80
2019,08,30,11,40,268.10
2019,08,30,11,41,263.90
2019,08,30,11,42,255.50
2019,08,30,11,43,247.30
2019,08,30,11,44,241.50
2019,08,30,11,45,237.40
2019,08,30,11,46,236.00
2019,08,30,11,47,240.80
2019,08,30,11,48,250.80
2019,08,30,11,49,261.50
2019,08,30,11,50,279.30
2019,08,30,11,51,308.70
2019,08,30,11,52,342.50
2019,08,30,11,53,372.30
2019,08,30,11,54,392.80
2019,08,30,11,55,405.20
2019,08,30,11,56,424.80
2019,08,30,11,57,443.30
2019,08,30,11,58,421.20
2019,08,30,11,59,403.10
2019,08,30,12,00,393.40
2019,08,30,12,01,385.70
2019,08,30,12,02,386.90
2019,08,30,12,03,395.50
2019,08,30,12,04,410.20
2019,08,30,12,05,421.50
2019,08,30,12,06,413.00
2019,08,30,12,07,403.80
2019,08,30,12,08,398.80
2019,08,30,12,09,397.40
2019,08,30,12,10,401.30
2019,08,30,12,11,404.20
2019,08,30,12,12,406.00
2019,08,30,12,13,406.00
2019,08,30,12,14,407.00
2019,08,30,12,15,414.20
2019,08,30,12,16,431.80
2019,08,30,12,17,450.00
2019,08,30,12,18,466.20
2019,08,30,12,19,481.10
2019,08,30,12,20,492.00
2019,08,30,12,21,502.10
2019,08,30,12,22,525.80
2019,08,30,12,23,529.00
2019,08,30,12,24,529.00
2019,08,30,12,25,513.10
2019,08,30,12,26,489.90
2019,08,30,12,27,478.90
2019,08,30,12,28,466.50
2019,08,30,12,29,466.00
2019,08,30,12,30,477.40
2019,08,30,12,31,494.90
2019,08,30,12,32,510.70
2019,08,30,12,33,520.00
2019,08,30,12,34,507.00
2019,08,30,12,35,475.60
2019,08,30,12,36,449.60
2019,08,30,12,37,441.70
2019,08,30,12,38,453.60
2019,08,30,12,39,459.00
2019,08,30,12,40,480.00
2019,08,30,12,41,494.50
2019,08,30,12,42,490.90
2019,08,30,12,43,487.30
2019,08,30,12,44,481.30
2019,08,30,12,45,476.60
2019,08,30,12,46,477.70
2019,08,30,12,47,485.60
2019,08,30,12,48,483.40
2019,08,30,12,49,483.00
2019,08,30,12,50,484.90
2019,08,30,12,51,480.20
2019,08,30,12,52,466.70
2019,08,30,12,53,444.50
2019,08,30,12,54,414.00
2019,08,30,12,55,396.00
2019,08,30,12,56,396.30
2019,08,30,12,57,399.50
2019,08,30,12,58,403.00
2019,08,30,12,59,395.60
2019,08,30,13,00,387.00
2019,08,30,13,01,382.40
2019,08,30,13,02,380.20
2019,08,30,13,03,381.00
2019,08,30,13,04,383.80
2019,08,30,13,05,393.40
2019,08,30,13,06,397.60
2019,08,30,13,07,397.50
2019,08,30,13,08,390.90
2019,08,30,13,09,382.30
2019,08,30,13,10,379.30
2019,08,30,13,11,384.60
2019,08,30,13,12,392.40
2019,08,30,13,13,397.40
2019,08,30,13,14,399.00
2019,08,30,13,15,404.50
2019,08,30,13,16,412.60
2019,08,30,13,17,416.10
2019,08,30,13,18,417.50
2019,08,30,13,19,417.50
2019,08,30,13,20,417.00
2019,08,30,13,21,411.60
2019,08,30,13,22,408.00
2019,08,30,13,23,391.80
2019,08,30,13,24,381.00
2019,08,30,13,25,378.50
2019,08,30,13,26,378.00
2019,08,30,13,27,376.50
2019,08,30,13,28,379.20
2019,08,30,13,29,380.00
2019,08,30,13,30,380.00
2019,08,30,13,31,380.00
2019,08,30,13,32,396.10
2019,08,30,13,33,399.00
2019,08,30,13,34,396.30
2019,08,30,13,35,390.60
2019,08,30,13,36,385.20
2019,08,30,13,37,383.10
2019,08,30,13,38,383.00
2019,08,30,13,39,388.00
2019,08,30,13,40,392.20
2019,08,30,13,41,396.00
2019,08,30,13,42,395.20
2019,08,30,13,43,379.50
2019,08,30,13,44,369.00
2019,08,30,13,45,368.10
2019,08,30,13,46,360.00
2019,08,30,13,47,359.90
2019,08,30,13,48,358.20
2019,08,30,13,49,354.30
2019,08,30,13,50,351.00
2019,08,30,13,51,347.20
2019,08,30,13,52,344.50
2019,08,30,13,53,341.50
2019,08,30,13,54,335.00
2019,08,30,13,55,325.70
2019,08,30,13,56,317.50
2019,08,30,13,57,309.90
2019,08,30,13,58,302.80
2019,08,30,13,59,299.40
2019,08,30,14,00,296.10
2019,08,30,14,01,295.90
2019,08,30,14,02,299.50
2019,08,30,14,03,302.00
2019,08,30,14,04,304.20
2019,08,30,14,05,303.80
2019,08,30,14,06,297.40
2019,08,30,14,07,290.40
2019,08,30,14,08,288.00
2019,08,30,14,09,291.70
2019,08,30,14,10,297.20
2019,08,30,14,11,297.70
2019,08,30,14,12,295.60
2019,08,30,14,13,292.90
2019,08,30,14,14,290.50
2019,08,30,14,15,283.20
2019,08,30,14,16,281.00
2019,08,30,14,17,297.80
2019,08,30,14,18,312.40
2019,08,30,14,19,317.50
2019,08,30,14,20,318.00
2019,08,30,14,21,318.00
2019,08,30,14,22,316.20
2019,08,30,14,23,315.00
2019,08,30,14,24,315.00
2019,08,30,14,25,316.00
2019,08,30,14,26,318.00
2019,08,30,14,27,315.00
2019,08,30,14,28,309.10
2019,08,30,14,29,311.40
2019,08,30,14,30,319.30
2019,08,30,14,31,333.30
2019,08,30,14,32,345.50
2019,08,30,14,33,350.00
2019,08,30,14,34,349.70
2019,08,30,14,35,347.40
2019,08,30,14,36,343.60
2019,08,30,14,37,335.90
2019,08,30,14,38,327.20
2019,08,30,14,39,319.90
2019,08,30,14,40,312.90
2019,08,30,14,41,306.80
2019,08,30,14,42,302.20
2019,08,30,14,43,298.30
2019,08,30,14,44,297.80
2019,08,30,14,45,299.00
2019,08,30,14,46,300.40
2019,08,30,14,47,302.00
2019,08,30,14,48,302.00
2019,08,30,14,49,302.00
2019,08,30,14,50,301.50
2019,08,30,14,51,298.00
2019,08,30,14,52,294.50
2019,08,30,14,53,291.80
2019,08,30,14,54,291.20
2019,08,30,14,55,298.00
2019,08,30,14,56,309.10
2019,08,30,14,57,317.50
2019,08,30,14,58,321.30
2019,08,30,14,59,319.20
2019,08,30,15,00,313.00
2019,08,30,15,01,305.80
2019,08,30,15,02,296.40
2019,08,30,15,03,294.00
2019,08,30,15,04,270.00
2019,08,30,15,05,256.80
2019,08,30,15,06,256.70
2019,08,30,15,07,250.70
2019,08,30,15,08,238.10
2019,08,30,15,09,232.40
2019,08,30,15,10,238.30
2019,08,30,15,11,249.40
2019,08,30,15,12,259.50
2019,08,30,15,13,267.50
2019,08,30,15,14,278.50
2019,08,30,15,15,287.10
2019,08,30,15,16,290.00
2019,08,30,15,17,290.40
2019,08,30,15,18,294.50
2019,08,30,15,19,296.50
2019,08,30,15,20,293.60
2019,08,30,15,21,292.50
2019,08,30,15,22,294.80
2019,08,30,15,23,292.60
2019,08,30,15,24,286.20
2019,08,30,15,25,283.00
2019,08,30,15,26,284.00
2019,08,30,15,27,288.50
2019,08,30,15,28,292.70
2019,08,30,15,29,294.40
2019,08,30,15,30,293.20
2019,08,30,15,31,288.80
2019,08,30,15,32,287.00
2019,08,30,15,33,284.30
2019,08,30,15,34,281.90
2019,08,30,15,35,284.90
2019,08,30,15,36,285.90
2019,08,30,15,37,281.50
2019,08,30,15,38,273.30
2019,08,30,15,39,269.00
2019,08,30,15,40,261.80
2019,08,30,15,41,254.50
2019,08,30,15,42,251.80
2019,08,30,15,43,251.00
2019,08,30,15,44,252.30
2019,08,30,15,45,253.00
2019,08,30,15,46,253.00
2019,08,30,15,47,248.10
2019,08,30,15,48,246.00
2019,08,30,15,49,249.00
2019,08,30,15,50,250.80
2019,08,30,15,51,254.20
2019,08,30,15,52,255.00
2019,08,30,15,53,250.80
2019,08,30,15,54,244.90
2019,08,30,15,55,241.30
2019,08,30,15,56,239.20
2019,08,30,15,57,236.30
2019,08,30,15,58,227.40
2019,08,30,15,59,216.60
2019,08,30,16,00,204.00
2019,08,30,16,01,194.60
2019,08,30,16,02,186.10
2019,08,30,16,03,188.60
2019,08,30,16,04,198.10
2019,08,30,16,05,188.20
2019,08,30,16,06,176.90
2019,08,30,16,07,170.40
2019,08,30,16,08,166.60
2019,08,30,16,09,166.20
2019,08,30,16,10,174.00
2019,08,30,16,11,186.70
2019,08,30,16,12,199.20
2019,08,30,16,13,205.40
2019,08,30,16,14,202.50
2019,08,30,16,15,196.70
2019,08,30,16,16,188.70
2019,08,30,16,17,182.30
2019,08,30,16,18,183.00
2019,08,30,16,19,187.60
2019,08,30,16,20,189.10
2019,08,30,16,21,184.70
2019,08,30,16,22,176.70
2019,08,30,16,23,172.00
2019,08,30,16,24,172.00
2019,08,30,16,25,168.10
2019,08,30,16,26,163.40
2019,08,30,16,27,159.70
2019,08,30,16,28,156.20
2019,08,30,16,29,156.80
2019,08,30,16,30,160.60
2019,08,30,16,31,160.60
2019,08,30,16,32,157.40
2019,08,30,16,33,152.50
2019,08,30,16,34,148.90
2019,08,30,16,35,146.50
2019,08,30,16,36,144.40
2019,08,30,16,37,144.00
2019,08,30,16,38,141.50
2019,08,30,16,39,139.40
2019,08,30,16,40,134.80
2019,08,30,16,41,128.60
2019,08,30,16,42,121.70
2019,08,30,16,43,116.50
2019,08,30,16,44,111.20
2019,08,30,16,45,109.10
2019,08,30,16,46,109.00
2019,08,30,16,47,111.20
2019,08,30,16,48,114.00
2019,08,30,16,49,118.00
2019,08,30,16,50,118.20
2019,08,30,16,51,121.20
2019,08,30,16,52,122.70
2019,08,30,16,53,121.00
2019,08,30,16,54,120.80
2019,08,30,16,55,119.70
2019,08,30,16,56,118.00
2019,08,30,16,57,117.50
2019,08,30,16,58,116.00
2019,08,30,16,59,116.50
2019,08,30,17,00,117.40
2019,08,30,17,01,116.00
2019,08,30,17,02,114.90
2019,08,30,17,03,112.40
2019,08,30,17,04,109.60
2019,08,30,17,05,107.00
2019,08,30,17,06,105.80
2019,08,30,17,07,102.20
2019,08,30,17,08,98.70
2019,08,30,17,09,94.20
2019,08,30,17,10,89.50
2019,08,30,17,11,87.00
2019,08,30,17,12,86.00
2019,08,30,17,13,84.90
2019,08,30,17,14,84.00
2019,08,30,17,15,85.20
2019,08,30,17,16,86.00